QPF
0.09 0.09 0.07 0.06 0.06 0.05 0.04 0.03 0.03 0.03 0.04 0.04 0.04 0.03 0.03 0.04 0.04 0.05 0.05 0.05 0.05 0.04 0.04 0.04 0.05 0.06 0.05 0.04 0.04 0.04 0.03 0.04 0.07 0.05 0.03 0.04 0.04 0.04 0.03 0.02 0.03 0.03 0.03
0.09 0.08 0.08 0.07 0.05 0.05 0.05 0.05 0.05 0.05 0.04 0.04 0.03 0.02 0.03 0.03 0.04 0.04 0.04 0.06 0.05 0.04 0.04 0.05 0.05 0.05 0.04 0.04 0.03 0.03 0.03 0.04 0.06 0.04 0.03 0.03 0.02 0.03 0.03 0.03 0.03 0.03 0.03
0.08 0.07 0.08 0.08 0.06 0.06 0.06 0.06 0.06 0.06 0.04 0.03 0.02 0.02 0.03 0.03 0.03 0.03 0.04 0.05 0.06 0.05 0.05 0.05 0.06 0.06 0.06 0.05 0.04 0.03 0.03 0.03 0.03 0.03 0.03 0.03 0.03 0.03 0.04 0.03 0.03 0.03 0.03
0.07 0.07 0.07 0.08 0.08 0.07 0.07 0.06 0.06 0.04 0.03 0.02 0.02 0.03 0.03 0.03 0.03 0.03 0.04 0.05 0.06 0.06 0.06 0.05 0.05 0.04 0.04 0.03 0.04 0.03 0.03 0.02 0.02 0.02 0.02 0.03 0.03 0.03 0.04 0.04 0.04 0.04 0.04
0.04 0.05 0.07 0.07 0.07 0.07 0.07 0.07 0.07 0.05 0.03 0.02 0.03 0.03 0.03 0.03 0.03 0.03 0.04 0.05 0.06 0.06 0.07 0.07 0.05 0.04 0.05 0.04 0.03 0.03 0.03 0.03 0.02 0.02 0.02 0.03 0.03 0.03 0.04 0.05 0.05 0.04 0.04
0.03 0.03 0.05 0.06 0.07 0.08 0.08 0.08 0.07 0.06 0.05 0.05 0.04 0.03 0.03 0.04 0.04 0.05 0.06 0.05 0.05 0.05 0.06 0.06 0.05 0.05 0.05 0.05 0.04 0.03 0.03 0.02 0.02 0.02 0.02 0.02 0.03 0.04 0.05 0.04 0.04 0.03 0.03
0.04 0.04 0.03 0.03 0.04 0.06 0.07 0.06 0.06 0.07 0.06 0.04 0.03 0.03 0.04 0.06 0.06 0.07 0.06 0.04 0.04 0.04 0.04 0.04 0.04 0.04 0.04 0.04 0.04 0.03 0.03 0.03 0.02 0.02 0.02 0.02 0.04 0.03 0.04 0.03 0.03 0.03 0.02
0.06 0.06 0.05 0.03 0.02 0.03 0.05 0.06 0.05 0.05 0.05 0.04 0.03 0.03 0.02 0.05 0.07 0.06 0.06 0.04 0.03 0.04 0.04 0.04 0.05 0.05 0.04 0.04 0.03 0.02 0.02 0.02 0.02 0.02 0.01 0.02 0.03 0.03 0.03 0.02 0.02 0.01 0.01
0.04 0.04 0.06 0.06 0.04 0.03 0.03 0.04 0.05 0.05 0.04 0.04 0.03 0.03 0.01 0.02 0.05 0.06 0.06 0.05 0.03 0.03 0.04 0.04 0.04 0.06 0.07 0.05 0.04 0.02 0.01 0.01 0.01 0.01 0.01 0.01 0.01 0.01 0.02 0.01 0.01 0.02 0.01
0.02 0.02 0.04 0.05 0.05 0.04 0.03 0.04 0.04 0.05 0.04 0.04 0.03 0.02 0.02 0.02 0.04 0.05 0.05 0.05 0.04 0.04 0.04 0.03 0.04 0.05 0.07 0.07 0.05 0.03 0.02 0.02 0.01 0.01 0.01 0.01 0.01 0.02 0.02 0.02 0.01 0.02 0.01
0.01 0.03 0.05 0.05 0.05 0.06 0.06 0.06 0.07 0.08 0.07 0.06 0.04 0.04 0.04 0.03 0.03 0.04 0.05 0.05 0.04 0.04 0.03 0.02 0.03 0.04 0.06 0.07 0.08 0.06 0.04 0.03 0.02 0.02 0.01 0.01 0.01 0.01 0.01 0.01 0.01 0.01 0.01
0.02 0.03 0.05 0.06 0.07 0.08 0.08 0.07 0.08 0.10 0.11 0.10 0.07 0.06 0.05 0.04 0.04 0.04 0.04 0.04 0.03 0.02 0.02 0.02 0.02 0.04 0.05 0.06 0.07 0.08 0.05 0.03 0.02 0.01 0.01 0.01 0.01 0.01 0.01 0.01 0.01 0.01 0.02
0.02 0.02 0.03 0.05 0.08 0.09 0.09 0.08 0.09 0.11 0.11 0.11 0.10 0.07 0.05 0.04 0.03 0.03 0.03 0.03 0.02 0.02 0.02 0.02 0.02 0.03 0.04 0.06 0.07 0.07 0.06 0.04 0.02 0.02 0.01 0.01 0.01 0.01 0.01 0.01 0.01 0.01 0.01
0.02 0.02 0.01 0.01 0.03 0.04 0.07 0.09 0.08 0.09 0.10 0.08 0.08 0.09 0.08 0.07 0.05 0.03 0.02 0.01 0.02 0.02 0.02 0.03 0.03 0.03 0.02 0.04 0.05 0.05 0.04 0.04 0.03 0.02 0.01 0.01 0.01 0.01 0.00 0.01 0.01 0.01 0.02
0.02 0.01 0.01 0.01 0.01 0.01 0.03 0.05 0.07 0.06 0.09 0.08 0.07 0.08 0.09 0.08 0.06 0.04 0.03 0.02 0.01 0.02 0.02 0.02 0.02 0.02 0.02 0.02 0.03 0.03 0.03 0.03 0.03 0.02 0.02 0.02 0.02 0.01 0.01 0.01 0.01 0.01 0.02
0.02 0.02 0.01 0.01 0.01 0.01 0.01 0.02 0.03 0.04 0.04 0.05 0.05 0.05 0.06 0.07 0.07 0.05 0.03 0.02 0.02 0.02 0.02 0.02 0.02 0.02 0.02 0.02 0.02 0.02 0.03 0.03 0.03 0.02 0.01 0.01 0.01 0.01 0.01 0.00 0.01 0.01 0.02
0.02 0.02 0.02 0.02 0.02 0.02 0.02 0.01 0.02 0.03 0.03 0.02 0.02 0.03 0.04 0.07 0.08 0.07 0.06 0.04 0.04 0.04 0.03 0.02 0.02 0.02 0.02 0.02 0.01 0.02 0.03 0.03 0.03 0.02 0.02 0.02 0.01 0.01 0.01 0.01 0.01 0.02 0.02
0.02 0.02 0.02 0.02 0.02 0.02 0.02 0.01 0.01 0.02 0.03 0.02 0.02 0.02 0.02 0.04 0.05 0.06 0.06 0.06 0.05 0.04 0.04 0.04 0.03 0.02 0.02 0.01 0.01 0.02 0.02 0.03 0.04 0.03 0.02 0.02 0.02 0.01 0.01 0.02 0.02 0.02 0.02
0.02 0.02 0.02 0.02 0.02 0.02 0.02 0.01 0.01 0.01 0.02 0.02 0.02 0.02 0.02 0.02 0.03 0.03 0.03 0.04 0.04 0.04 0.03 0.03 0.02 0.02 0.02 0.02 0.01 0.01 0.02 0.03 0.04 0.04 0.02 0.02 0.01 0.01 0.01 0.02 0.02 0.02 0.02
0.01 0.01 0.02 0.01 0.01 0.01 0.01 0.01 0.01 0.01 0.01 0.01 0.02 0.02 0.02 0.02 0.02 0.02 0.02 0.02 0.02 0.02 0.02 0.02 0.02 0.02 0.02 0.02 0.02 0.01 0.02 0.02 0.03 0.03 0.03 0.03 0.03 0.02 0.02 0.02 0.03 0.03 0.02
0.01 0.00 0.00 0.01 0.01 0.01 0.00 0.00 0.00 0.00 0.00 0.00 0.01 0.01 0.02 0.02 0.02 0.02 0.02 0.02 0.02 0.01 0.01 0.01 0.01 0.02 0.02 0.02 0.01 0.01 0.01 0.01 0.02 0.03 0.04 0.05 0.05 0.04 0.03 0.03 0.03 0.02 0.02
0.01 0.00 0.00 0.00 0.00 0.00 0.01 0.00 0.00 0.00 0.00 0.01 0.01 0.01 0.01 0.01 0.02 0.02 0.02 0.02 0.02 0.02 0.02 0.02 0.02 0.02 0.02 0.02 0.02 0.02 0.02 0.02 0.02 0.03 0.04 0.06 0.06 0.06 0.06 0.05 0.04 0.04 0.03
0.02 0.01 0.00 0.01 0.01 0.00 0.01 0.01 0.01 0.01 0.01 0.01 0.01 0.01 0.01 0.01 0.01 0.01 0.01 0.01 0.01 0.02 0.02 0.02 0.02 0.01 0.01 0.01 0.01 0.02 0.03 0.04 0.04 0.05 0.06 0.06 0.07 0.07 0.07 0.06 0.06 0.06 0.06
0.05 0.04 0.02 0.02 0.02 0.01 0.01 0.01 0.02 0.01 0.01 0.01 0.01 0.02 0.02 0.01 0.01 0.01 0.01 0.01 0.01 0.01 0.01 0.01 0.01 0.01 0.01 0.01 0.02 0.02 0.02 0.03 0.03 0.03 0.04 0.04 0.05 0.05 0.06 0.06 0.06 0.04 0.04
0.06 0.07 0.06 0.04 0.03 0.02 0.02 0.02 0.02 0.02 0.02 0.02 0.02 0.02 0.02 0.02 0.01 0.01 0.01 0.01 0.01 0.01 0.01 0.01 0.01 0.02 0.02 0.02 0.03 0.03 0.03 0.03 0.02 0.02 0.03 0.02 0.03 0.04 0.05 0.05 0.05 0.03 0.02
0.03 0.04 0.05 0.04 0.04 0.04 0.04 0.04 0.03 0.03 0.02 0.02 0.02 0.02 0.02 0.02 0.02 0.02 0.02 0.01 0.01 0.01 0.01 0.02 0.02 0.03 0.03 0.03 0.03 0.03 0.03 0.02 0.02 0.02 0.02 0.02 0.02 0.02 0.03 0.04 0.03 0.02 0.02
MSLP
1007.47 1007.58 1007.77 1008.02 1008.31 1008.63 1008.97 1009.35 1009.75 1010.18 1010.63 1011.09 1011.53 1011.95 1012.31 1012.62 1012.88 1013.11 1013.33 1013.57 1013.84 1014.16 1014.50 1014.87 1015.23 1015.56 1015.84 1016.07 1016.26 1016.43 1016.59 1016.77 1016.99 1017.26 1017.55 1017.85 1018.14 1018.38 1018.56 1018.68 1018.75 1018.78 1018.80
1006.87 1006.91 1007.03 1007.20 1007.42 1007.68 1007.99 1008.33 1008.73 1009.17 1009.65 1010.15 1010.65 1011.12 1011.54 1011.90 1012.22 1012.50 1012.75 1013.01 1013.30 1013.61 1013.94 1014.29 1014.64 1014.97 1015.26 1015.52 1015.75 1015.97 1016.20 1016.45 1016.73 1017.05 1017.39 1017.74 1018.06 1018.34 1018.56 1018.73 1018.85 1018.94 1019.03
1006.29 1006.27 1006.31 1006.40 1006.54 1006.72 1006.96 1007.26 1007.63 1008.07 1008.56 1009.09 1009.64 1010.16 1010.65 1011.09 1011.48 1011.81 1012.12 1012.41 1012.71 1013.03 1013.35 1013.69 1014.02 1014.34 1014.64 1014.92 1015.19 1015.46 1015.75 1016.06 1016.40 1016.77 1017.16 1017.54 1017.89 1018.20 1018.46 1018.67 1018.84 1018.98 1019.13
1005.75 1005.67 1005.63 1005.63 1005.67 1005.76 1005.91 1006.14 1006.46 1006.86 1007.35 1007.89 1008.47 1009.06 1009.62 1010.13 1010.59 1011.01 1011.38 1011.72 1012.05 1012.38 1012.70 1013.03 1013.35 1013.66 1013.96 1014.25 1014.55 1014.86 1015.19 1015.56 1015.96 1016.38 1016.80 1017.22 1017.61 1017.95 1018.24 1018.49 1018.69 1018.89 1019.08
1005.29 1005.14 1005.02 1004.91 1004.84 1004.81 1004.85 1004.98 1005.22 1005.56 1006.02 1006.56 1007.15 1007.78 1008.40 1008.98 1009.53 1010.03 1010.47 1010.88 1011.26 1011.62 1011.96 1012.29 1012.61 1012.91 1013.21 1013.51 1013.82 1014.15 1014.52 1014.92 1015.36 1015.82 1016.29 1016.74 1017.16 1017.54 1017.87 1018.15 1018.40 1018.64 1018.87
1004.95 1004.73 1004.51 1004.29 1004.09 1003.92 1003.83 1003.84 1003.97 1004.23 1004.62 1005.12 1005.71 1006.34 1007.00 1007.65 1008.27 1008.85 1009.38 1009.87 1010.32 1010.73 1011.11 1011.46 1011.79 1012.10 1012.40 1012.70 1013.02 1013.36 1013.74 1014.16 1014.62 1015.11 1015.60 1016.09 1016.55 1016.96 1017.33 1017.66 1017.95 1018.23 1018.50
1004.77 1004.47 1004.15 1003.81 1003.47 1003.16 1002.93 1002.80 1002.80 1002.95 1003.24 1003.67 1004.21 1004.83 1005.49 1006.17 1006.85 1007.49 1008.11 1008.68 1009.22 1009.70 1010.15 1010.55 1010.92 1011.25 1011.56 1011.87 1012.18 1012.53 1012.91 1013.33 1013.79 1014.29 1014.80 1015.30 1015.79 1016.24 1016.65 1017.02 1017.35 1017.67 1017.97
1004.79 1004.41 1003.99 1003.53 1003.06 1002.62 1002.25 1001.98 1001.84 1001.86 1002.03 1002.35 1002.80 1003.36 1003.98 1004.65 1005.34 1006.03 1006.71 1007.37 1007.99 1008.56 1009.09 1009.57 1009.99 1010.37 1010.71 1011.04 1011.36 1011.70 1012.07 1012.48 1012.93 1013.42 1013.93 1014.45 1014.95 1015.42 1015.86 1016.27 1016.65 1016.99 1017.32
1005.01 1004.57 1004.06 1003.51 1002.93 1002.38 1001.89 1001.49 1001.22 1001.10 1001.14 1001.32 1001.65 1002.09 1002.62 1003.23 1003.89 1004.58 1005.29 1006.00 1006.69 1007.35 1007.97 1008.54 1009.04 1009.49 1009.88 1010.24 1010.58 1010.92 1011.28 1011.68 1012.11 1012.58 1013.08 1013.59 1014.09 1014.58 1015.04 1015.47 1015.87 1016.25 1016.60
1005.43 1004.93 1004.37 1003.76 1003.12 1002.49 1001.92 1001.43 1001.05 1000.80 1000.69 1000.72 1000.89 1001.17 1001.57 1002.05 1002.62 1003.26 1003.95 1004.67 1005.41 1006.14 1006.84 1007.49 1008.09 1008.61 1009.07 1009.48 1009.86 1010.22 1010.58 1010.97 1011.38 1011.83 1012.30 1012.79 1013.29 1013.77 1014.24 1014.68 1015.09 1015.47 1015.83
1005.98 1005.47 1004.89 1004.26 1003.61 1002.96 1002.35 1001.81 1001.35 1001.00 1000.75 1000.63 1000.61 1000.71 1000.92 1001.24 1001.66 1002.18 1002.79 1003.48 1004.21 1004.97 1005.73 1006.45 1007.12 1007.73 1008.27 1008.75 1009.17 1009.56 1009.94 1010.33 1010.74 1011.17 1011.62 1012.09 1012.56 1013.03 1013.48 1013.91 1014.32 1014.71 1015.07
1006.61 1006.11 1005.55 1004.95 1004.33 1003.72 1003.13 1002.59 1002.10 1001.67 1001.31 1001.03 1000.83 1000.73 1000.73 1000.84 1001.07 1001.42 1001.90 1002.49 1003.17 1003.91 1004.68 1005.44 1006.17 1006.84 1007.45 1007.99 1008.48 1008.92 1009.33 1009.74 1010.15 1010.58 1011.01 1011.46 1011.91 1012.36 1012.79 1013.20 1013.59 1013.96 1014.31
1007.24 1006.77 1006.26 1005.73 1005.20 1004.66 1004.14 1003.63 1003.15 1002.68 1002.24 1001.84 1001.47 1001.17 1000.95 1000.83 1000.85 1001.00 1001.31 1001.75 1002.33 1002.99 1003.73 1004.48 1005.23 1005.94 1006.60 1007.20 1007.74 1008.23 1008.69 1009.13 1009.57 1010.00 1010.44 1010.88 1011.32 1011.74 1012.15 1012.54 1012.90 1013.25 1013.58
1007.79 1007.36 1006.93 1006.49 1006.06 1005.63 1005.20 1004.77 1004.32 1003.86 1003.37 1002.87 1002.37 1001.90 1001.48 1001.16 1000.96 1000.90 1001.01 1001.29 1001.71 1002.27 1002.91 1003.61 1004.33 1005.04 1005.72 1006.35 1006.93 1007.48 1007.98 1008.47 1008.94 1009.40 1009.86 1010.30 1010.73 1011.15 1011.54 1011.90 1012.24 1012.56 1012.87
1008.19 1007.82 1007.46 1007.12 1006.79 1006.47 1006.15 1005.81 1005.42 1004.98 1004.49 1003.94 1003.35 1002.75 1002.19 1001.69 1001.31 1001.07 1000.99 1001.09 1001.35 1001.76 1002.28 1002.89 1003.53 1004.20 1004.85 1005.48 1006.08 1006.65 1007.19 1007.72 1008.23 1008.73 1009.22 1009.69 1010.13 1010.55 1010.94 1011.29 1011.61 1011.91 1012.19
1008.42 1008.09 1007.79 1007.53 1007.30 1007.08 1006.85 1006.59 1006.27 1005.88 1005.40 1004.84 1004.22 1003.56 1002.91 1002.31 1001.80 1001.42 1001.20 1001.14 1001.25 1001.51 1001.89 1002.36 1002.90 1003.48 1004.06 1004.65 1005.23 1005.79 1006.36 1006.91 1007.46 1008.00 1008.52 1009.02 1009.50 1009.93 1010.33 1010.68 1011.00 1011.28 1011.54
1008.50 1008.19 1007.94 1007.72 1007.55 1007.39 1007.23 1007.03 1006.77 1006.43 1005.99 1005.46 1004.86 1004.20 1003.54 1002.91 1002.35 1001.90 1001.58 1001.42 1001.40 1001.52 1001.76 1002.10 1002.50 1002.95 1003.44 1003.94 1004.46 1005.00 1005.54 1006.10 1006.66 1007.23 1007.79 1008.33 1008.84 1009.31 1009.73 1010.09 1010.41 1010.69 1010.93
1008.46 1008.17 1007.93 1007.73 1007.58 1007.45 1007.32 1007.15 1006.93 1006.63 1006.25 1005.77 1005.23 1004.63 1004.02 1003.43 1002.89 1002.44 1002.10 1001.88 1001.78 1001.80 1001.91 1002.11 1002.37 1002.69 1003.05 1003.44 1003.87 1004.33 1004.83 1005.36 1005.92 1006.50 1007.08 1007.65 1008.19 1008.69 1009.14 1009.53 1009.86 1010.14 1010.38
1008.36 1008.08 1007.84 1007.64 1007.48 1007.34 1007.20 1007.03 1006.82 1006.56 1006.22 1005.81 1005.35 1004.85 1004.34 1003.84 1003.39 1002.99 1002.69 1002.46 1002.33 1002.28 1002.30 1002.39 1002.52 1002.70 1002.92 1003.19 1003.50 1003.87 1004.30 1004.78 1005.30 1005.86 1006.45 1007.03 1007.59 1008.11 1008.59 1009.00 1009.35 1009.64 1009.87
1008.26 1007.99 1007.75 1007.53 1007.34 1007.16 1006.98 1006.79 1006.57 1006.32 1006.02 1005.68 1005.31 1004.91 1004.52 1004.15 1003.81 1003.52 1003.28 1003.11 1002.98 1002.90 1002.86 1002.86 1002.88 1002.94 1003.04 1003.18 1003.38 1003.65 1003.98 1004.39 1004.86 1005.38 1005.93 1006.51 1007.07 1007.60 1008.09 1008.52 1008.88 1009.18 1009.41
1008.20 1007.96 1007.71 1007.47 1007.23 1007.01 1006.78 1006.55 1006.30 1006.04 1005.76 1005.47 1005.18 1004.89 1004.62 1004.37 1004.15 1003.97 1003.83 1003.71 1003.62 1003.54 1003.47 1003.42 1003.37 1003.34 1003.34 1003.37 1003.47 1003.64 1003.88 1004.21 1004.61 1005.07 1005.58 1006.12 1006.66 1007.18 1007.66 1008.09 1008.46 1008.76 1009.00
1008.19 1007.98 1007.74 1007.48 1007.21 1006.94 1006.66 1006.38 1006.10 1005.82 1005.54 1005.28 1005.05 1004.83 1004.65 1004.50 1004.39 1004.30 1004.24 1004.18 1004.13 1004.08 1004.01 1003.94 1003.85 1003.77 1003.71 1003.69 1003.71 1003.81 1003.97 1004.23 1004.55 1004.95 1005.40 1005.89 1006.38 1006.87 1007.33 1007.74 1008.09 1008.39 1008.62
1008.20 1008.03 1007.80 1007.55 1007.26 1006.95 1006.63 1006.31 1005.99 1005.68 1005.40 1005.15 1004.93 1004.76 1004.63 1004.54 1004.48 1004.46 1004.45 1004.44 1004.43 1004.40 1004.36 1004.29 1004.21 1004.13 1004.06 1004.01 1004.01 1004.07 1004.20 1004.40 1004.68 1005.01 1005.40 1005.82 1006.26 1006.69 1007.10 1007.47 1007.80 1008.06 1008.27
1008.17 1008.03 1007.84 1007.59 1007.30 1006.97 1006.63 1006.28 1005.94 1005.61 1005.32 1005.05 1004.83 1004.66 1004.54 1004.47 1004.43 1004.42 1004.43 1004.44 1004.46 1004.46 1004.45 1004.42 1004.37 1004.33 1004.30 1004.28 1004.31 1004.38 1004.51 1004.69 1004.93 1005.22 1005.55 1005.91 1006.28 1006.64 1006.99 1007.30 1007.58 1007.81 1007.99
1008.04 1007.93 1007.75 1007.52 1007.24 1006.92 1006.58 1006.23 1005.88 1005.55 1005.23 1004.96 1004.72 1004.53 1004.39 1004.29 1004.23 1004.20 1004.19 1004.21 1004.23 1004.25 1004.27 1004.29 1004.32 1004.34 1004.39 1004.45 1004.54 1004.67 1004.83 1005.03 1005.27 1005.54 1005.83 1006.13 1006.43 1006.73 1007.00 1007.25 1007.46 1007.64 1007.77
1007.75 1007.64 1007.47 1007.26 1007.00 1006.71 1006.39 1006.06 1005.73 1005.41 1005.10 1004.82 1004.56 1004.34 1004.16 1004.02 1003.91 1003.84 1003.80 1003.79 1003.81 1003.84 1003.90 1003.98 1004.08 1004.20 1004.34 1004.50 1004.69 1004.91 1005.14 1005.39 1005.65 1005.92 1006.18 1006.44 1006.69 1006.91 1007.12 1007.30 1007.45 1007.56 1007.64
Thickness
5712 5712 5711 5709 5708 5706 5705 5704 5703 5701 5701 5699 5698 5696 5695 5694 5693 5691 5689 5688 5685 5683 5683 5681 5680 5679 5677 5676 5675 5673 5672 5670 5668 5670 5671 5673 5674 5674 5674 5674 5674 5674 5673
5707 5706 5705 5703 5702 5701 5700 5700 5699 5697 5696 5695 5694 5692 5691 5690 5688 5687 5685 5684 5681 5679 5679 5678 5677 5676 5674 5673 5671 5670 5669 5668 5666 5665 5666 5667 5668 5669 5669 5669 5669 5669 5669
5702 5700 5698 5697 5696 5695 5694 5694 5694 5692 5691 5690 5689 5687 5686 5685 5684 5682 5681 5679 5677 5676 5676 5674 5674 5673 5671 5670 5668 5667 5666 5666 5664 5662 5661 5662 5663 5664 5663 5663 5664 5664 5664
5696 5694 5692 5691 5690 5689 5689 5688 5688 5687 5686 5685 5684 5684 5682 5680 5679 5678 5676 5674 5673 5673 5673 5672 5671 5670 5669 5668 5666 5664 5663 5661 5659 5658 5657 5656 5657 5658 5657 5656 5656 5657 5657
5690 5688 5686 5685 5685 5684 5683 5683 5682 5682 5681 5681 5679 5678 5677 5676 5674 5672 5671 5670 5668 5668 5668 5668 5669 5668 5668 5666 5664 5661 5659 5656 5655 5653 5651 5651 5650 5650 5649 5650 5650 5650 5651
5684 5682 5681 5679 5679 5678 5677 5677 5676 5675 5675 5674 5673 5672 5671 5671 5670 5668 5666 5664 5664 5663 5662 5663 5664 5663 5663 5662 5661 5660 5658 5654 5651 5649 5647 5645 5645 5645 5645 5645 5643 5642 5642
5679 5677 5675 5674 5673 5673 5673 5671 5670 5669 5668 5667 5667 5666 5665 5665 5665 5663 5661 5660 5659 5658 5658 5658 5658 5659 5657 5656 5655 5654 5653 5652 5651 5648 5645 5643 5642 5642 5641 5639 5638 5637 5638
5673 5671 5670 5669 5668 5667 5666 5665 5664 5664 5662 5661 5661 5661 5660 5659 5659 5658 5657 5655 5654 5653 5653 5653 5652 5651 5651 5649 5648 5647 5646 5646 5646 5645 5644 5642 5641 5640 5638 5636 5634 5633 5633
5667 5666 5665 5664 5663 5661 5660 5659 5659 5658 5657 5656 5656 5655 5653 5653 5653 5653 5651 5649 5648 5647 5647 5647 5646 5645 5645 5644 5642 5640 5639 5640 5641 5641 5640 5639 5637 5636 5634 5630 5628 5625 5624
5662 5662 5660 5659 5658 5656 5655 5654 5654 5653 5651 5650 5649 5648 5648 5647 5647 5647 5645 5643 5641 5640 5640 5640 5640 5640 5639 5638 5636 5635 5633 5633 5634 5634 5633 5632 5631 5629 5628 5626 5624 5620 5618
5658 5657 5655 5654 5653 5651 5650 5649 5647 5646 5644 5643 5642 5641 5641 5641 5642 5640 5639 5637 5635 5634 5633 5632 5633 5633 5633 5632 5631 5630 5630 5629 5628 5626 5625 5624 5623 5622 5622 5622 5620 5617 5614
5653 5651 5650 5648 5648 5647 5645 5643 5641 5640 5638 5636 5635 5634 5634 5635 5635 5634 5632 5631 5631 5629 5628 5627 5627 5628 5627 5626 5625 5625 5624 5622 5620 5618 5617 5616 5615 5615 5616 5616 5616 5615 5614
5646 5644 5644 5643 5641 5641 5639 5638 5635 5634 5632 5630 5629 5628 5627 5628 5628 5627 5626 5625 5624 5623 5622 5622 5622 5621 5621 5619 5618 5618 5616 5614 5612 5611 5610 5610 5610 5610 5610 5610 5610 5609 5609
5639 5638 5638 5637 5635 5634 5633 5632 5630 5629 5628 5626 5624 5623 5622 5621 5621 5620 5619 5618 5617 5616 5615 5615 5615 5615 5614 5613 5611 5610 5609 5608 5606 5605 5605 5605 5605 5604 5603 5603 5602 5601 5600
5633 5633 5632 5631 5629 5628 5627 5626 5625 5625 5624 5623 5621 5618 5616 5615 5615 5615 5614 5613 5611 5610 5608 5607 5606 5606 5605 5604 5603 5603 5602 5601 5600 5600 5599 5598 5598 5597 5597 5597 5595 5594 5591
5627 5627 5626 5625 5624 5622 5621 5619 5620 5619 5620 5619 5617 5615 5613 5612 5611 5610 5609 5608 5606 5605 5602 5600 5600 5599 5599 5598 5597 5597 5597 5596 5596 5596 5595 5594 5593 5592 5591 5591 5590 5587 5585
5623 5622 5621 5620 5619 5617 5616 5614 5612 5612 5612 5612 5611 5610 5608 5607 5605 5605 5603 5602 5600 5599 5596 5595 5594 5594 5594 5594 5593 5592 5592 5592 5591 5591 5590 5589 5588 5587 5586 5585 5584 5582 5580
5618 5618 5617 5615 5614 5613 5612 5610 5608 5606 5604 5603 5603 5603 5602 5601 5600 5599 5597 5595 5593 5592 5591 5590 5589 5590 5590 5589 5589 5588 5587 5587 5586 5586 5585 5584 5583 5582 5581 5580 5578 5577 5575
5612 5612 5611 5611 5610 5608 5606 5605 5603 5601 5599 5597 5596 5595 5595 5594 5593 5592 5591 5589 5588 5587 5585 5585 5585 5585 5585 5585 5584 5584 5583 5582 5581 5580 5580 5580 5579 5577 5576 5575 5573 5572 5570
5606 5607 5607 5605 5604 5602 5601 5599 5597 5595 5593 5591 5590 5589 5588 5586 5585 5584 5584 5583 5582 5581 5581 5580 5581 5581 5581 5580 5579 5578 5577 5576 5576 5575 5575 5574 5574 5573 5572 5570 5569 5567 5566
5600 5600 5601 5600 5598 5597 5596 5594 5592 5590 5588 5586 5585 5585 5583 5582 5581 5580 5579 5578 5578 5577 5576 5576 5576 5577 5576 5576 5575 5574 5573 5572 5571 5570 5569 5569 5568 5568 5567 5566 5564 5563 5562
5594 5593 5593 5592 5592 5591 5590 5588 5586 5584 5582 5581 5580 5579 5577 5575 5574 5573 5573 5573 5573 5573 5572 5572 5572 5572 5572 5571 5571 5570 5568 5567 5566 5565 5564 5564 5563 5563 5562 5562 5560 5559 5558
5587 5587 5586 5586 5585 5584 5583 5581 5580 5578 5576 5575 5574 5572 5570 5569 5568 5568 5567 5567 5568 5568 5567 5567 5567 5567 5567 5566 5566 5565 5564 5562 5561 5560 5559 5558 5558 5557 5557 5556 5555 5554 5553
5579 5579 5579 5578 5578 5576 5575 5574 5572 5572 5570 5569 5568 5567 5565 5564 5563 5563 5563 5562 5562 5562 5563 5562 5562 5562 5561 5560 5559 5559 5559 5558 5556 5555 5554 5553 5552 5552 5551 5550 5549 5549 5547
5571 5570 5570 5570 5570 5569 5568 5566 5565 5564 5564 5563 5562 5561 5560 5559 5558 5558 5558 5557 5557 5557 5557 5558 5557 5556 5555 5554 5554 5553 5552 5551 5551 5550 5549 5548 5547 5546 5545 5544 5543 5542 5541
5562 5562 5562 5562 5562 5561 5560 5559 5558 5558 5557 5556 5555 5554 5554 5553 5553 5553 5553 5552 5552 5552 5552 5552 5552 5551 5550 5548 5548 5547 5545 5545 5545 5544 5544 5542 5541 5540 5539 5538 5537 5536 5535